Regional Weather Roundup
Issued by NWS Cleveland, OH

Home | Current Version | Previous Version | Graphics & Text | Print | Product List | Glossary On
Versions: 1 2 3 4 5 6 7 8 9 10 11 12 13 14 15 16 17 18 19 20 21 22 23 24 25 26 27 28 29 30 31 32 33 34 35 36 37 38 39 40 41 42 43 44 45 46 47 48 49 50
000
ASUS41 KCLE 260112
RWRCLE
OHIO REGIONAL WEATHER ROUNDUP
NATIONAL WEATHER SERVICE WILMINGTON, OH
900 PM EDT SAT MAR 25 2017

NOTE: "FAIR" INDICATES FEW OR NO CLOUDS BELOW 12,000 FEET WITH NO
SIGNIFICANT WEATHER AND/OR OBSTRUCTIONS TO VISIBILITY.

OHZ001>008-015>018-024>027-034-035-043-044-260200-
   NORTHWEST OHIO

CITY           SKY/WX    TMP DP  RH WIND       PRES   REMARKS
DEFIANCE       MOCLDY    41  37  86 E13       30.09S
FINDLAY        FAIR      45  38  76 NE14      30.08S
TOLEDO EXPRESS CLOUDY    38  35  89 E14G24    30.13F
TOLEDO EXEC    CLOUDY    39  37  92 E17G26    30.15F
LIMA           FAIR      53  48  83 NE12      30.06R
$$

OHZ009>014-019>023-028>033-038-089-260200-
   NORTHEAST OHIO

CITY           SKY/WX    TMP DP  RH WIND       PRES   REMARKS
CLE-HOPKINS    MOCLDY    43  36  76 N5        30.17S
CLE-LAKEFRONT  FAIR      40  37  89 NE14      30.14F
CUY CO. ARPT   CLOUDY    46  39  76 E8        30.15F
LORAIN-ELYRIA  FAIR      40  35  83 NE8       30.14S
ASHTABULA      FAIR      39  36  89 NE5       30.20S
AKRON-CANTON   CLOUDY    58  48  69 E10       30.13F
WOOSTER        FAIR      58  50  75 E7        30.12S
MANSFIELD      FAIR      58  51  78 NE8       30.10F
YOUNGSTOWN     MOCLDY    54  47  77 E7        30.17R
$$

OHZ042-051>053-060>062-070>072-077>081-260200-
  SOUTHWEST OHIO

CITY           SKY/WX    TMP DP  RH WIND       PRES   REMARKS
CINC-COVINGTON MOCLDY    66  49  54 SE7       30.02R
CINC-LUNKEN    FAIR      69  50  50 SE3       30.02R
HAMILTON       FAIR      68  52  56 SE3       30.02R
DAYTON         MOCLDY    66  50  56 SE12      30.03F
WRIGHT-PAT AFB CLOUDY    67  50  54 SE7       30.03S
DAYTON GENERAL FAIR      67  50  54 E9        30.02S
WILMINGTON     FAIR      64  51  62 E7        30.05S
$$

OHZ036-037-039>041-045>050-054>059-063>069-073>076-082>088-260200-
  CENTRAL AND SOUTHEAST OHIO

CITY           SKY/WX    TMP DP  RH WIND       PRES   REMARKS
COLUMBUS       MOCLDY    68  50  52 SE3       30.06S
OSU AIRPORT    FAIR      67  50  54 SE5       30.06S
BOLTON FIELD   FAIR      64  50  61 S3        30.07S
RICKENBACK AFB FAIR      65  50  58 SE6       30.06S
NEWARK         FAIR      60  51  72 CALM      30.07S
MARION         FAIR      58  51  78 E8        30.07F
LANCASTER      FAIR      60  50  69 CALM      30.08R
ZANESVILLE     FAIR      67  49  52 E3        30.09S
NEW PHILLY     FAIR      64  52  64 CALM      30.11S
$$




USA.gov is the U.S. government's official web portal to all federal, state and local government web resources and services.